GFSNW_925_temp_090.txt.gz
Temp
2 2 2 2 3 3 3 1 0 3 3 2 3 0 5 8 8 10 7 6 7 8 11 12 12 12 13 14 15 13 14 12 13 14 13 14 14 12 12 11 12 13 13 14
2 2 2 2 3 3 2 1 2 3 2 3 3 3 5 6 7 8 9 7 6 7 8 10 12 10 12 13 13 13 14 12 13 13 14 14 13 13 14 12 11 12 12 13
2 2 2 2 3 2 2 1 1 -0 2 3 3 4 5 5 8 8 8 8 7 7 9 11 10 11 12 13 13 12 13 12 12 11 12 13 12 14 14 13 11 13 13 12
2 2 2 2 3 3 3 1 -0 1 0 2 3 3 4 5 6 9 7 6 7 8 8 9 8 10 11 13 12 12 12 11 12 12 12 12 12 12 12 12 12 12 13 12
2 2 2 2 3 2 2 0 1 1 1 3 3 3 3 4 5 6 7 7 9 9 8 9 9 9 9 9 11 11 11 10 11 12 12 11 11 12 12 12 13 13 14 13
2 2 2 2 3 2 1 1 1 1 2 3 3 4 5 4 6 5 8 7 8 8 8 9 9 8 8 9 10 10 10 10 10 11 11 11 11 11 13 13 13 13 12 13
2 2 2 2 3 2 2 1 1 1 -0 2 3 4 4 5 6 6 7 8 7 7 7 8 8 7 8 8 9 9 9 10 8 9 10 9 13 13 13 13 14 13 14 14
2 2 2 2 3 3 2 1 1 1 -2 3 3 3 4 5 5 5 6 6 6 5 7 8 9 9 10 10 9 8 9 8 8 8 9 11 12 14 12 12 13 12 12 13
2 1 2 2 3 3 2 2 1 1 -1 1 3 4 4 4 4 4 6 6 5 6 5 6 8 8 9 10 10 8 7 8 8 7 9 7 11 13 11 12 11 9 10 12
1 1 1 2 2 3 3 2 2 1 1 1 3 3 3 4 4 3 4 4 4 4 5 6 7 8 9 9 10 10 7 7 8 8 9 9 10 10 11 11 10 8 9 10
1 1 1 2 2 3 3 3 2 2 0 1 3 3 3 3 3 2 3 3 3 5 5 6 6 5 7 8 9 9 8 7 7 9 8 8 8 10 10 9 8 8 8 7
1 1 1 2 2 2 3 3 2 2 1 2 3 4 4 4 5 3 2 3 3 5 4 5 5 6 4 6 7 8 6 8 8 8 8 8 8 7 7 7 6 7 6 5
1 1 2 2 2 2 2 3 2 1 2 2 1 2 5 5 5 5 2 2 4 4 2 3 5 6 7 6 6 8 6 6 7 7 6 6 6 5 4 3 3 3 4 2
1 1 2 2 2 2 2 3 2 1 2 1 2 4 3 5 5 4 5 4 4 4 3 4 5 5 6 6 7 7 5 6 5 7 5 5 4 3 3 2 2 1 0 1
1 1 2 2 3 3 3 3 2 3 3 1 1 3 5 6 5 4 4 4 4 4 5 5 4 4 6 6 6 4 4 4 4 5 3 4 2 1 1 0 -1 -1 -1 -2
1 3 3 3 3 3 3 1 2 2 2 3 1 3 4 4 4 3 2 3 3 5 5 5 5 5 6 5 3 3 3 2 3 4 2 1 1 -0 -1 -1 -2 -2 -3 -3
2 3 3 3 3 3 3 2 3 2 2 2 1 2 4 4 3 1 1 3 4 4 4 4 4 4 6 5 6 2 2 2 2 2 2 3 1 -0 -0 -1 -2 -3 -4 -5
3 3 3 4 3 3 3 3 2 2 2 2 3 2 3 4 3 3 2 2 3 4 4 5 5 5 4 3 1 1 1 1 1 0 1 0 -0 -1 -2 -2 -2 -3 -4 -5
3 3 4 3 2 2 2 2 2 2 3 3 1 2 2 4 3 4 3 3 2 3 4 3 3 3 4 -1 -0 -0 -1 -1 -2 -0 0 -1 -2 -3 -4 -4 -4 -4 -5 -6
2 3 2 1 1 3 2 2 2 2 3 3 3 1 2 4 5 4 3 2 1 3 3 3 4 -1 -1 -2 -2 -2 -3 -3 -3 -1 -0 -2 -2 -4 -5 -6 -6 -7 -8 -9
2 1 2 2 2 2 2 2 3 3 3 3 4 2 3 3 4 4 3 2 1 3 4 4 1 -0 -2 -2 -2 -4 -4 -4 -4 -4 -4 -4 -4 -4 -5 -6 -6 -8 -9 -10
2 2 3 2 2 2 3 2 2 3 3 2 3 4 4 4 3 3 3 5 4 4 4 2 -1 -2 -3 -3 -4 -4 -5 -5 -5 -5 -5 -6 -6 -6 -7 -8 -9 -10 -11 -11
3 3 2 3 2 3 1 2 4 3 3 0 3 4 4 3 2 3 4 4 3 3 0 1 -3 -2 -3 -4 -5 -6 -6 -6 -6 -7 -7 -8 -9 -9 -10 -11 -11 -11 -12 -12
2 2 2 2 0 -2 -1 -0 -0 0 3 4 3 4 4 3 3 3 5 1 2 0 -1 -1 -5 -4 -5 -5 -6 -8 -11 -11 -11 -12 -11 -11 -11 -11 -10 -10 -10 -11 -12 -12
1 1 0 -3 -4 -4 -0 1 2 2 2 -0 3 2 1 -1 -0 0 -0 3 1 -1 -3 -8 -7 -7 -7 -8 -8 -10 -11 -13 -13 -11 -11 -11 -11 -11 -11 -11 -11 -11 -11 -11
-1 -3 -2 -2 0 -0 0 1 2 1 2 -1 1 2 -0 -1 -2 0 -1 1 0 -4 -8 -8 -9 -10 -12 -12 -12 -11 -10 -10 -11 -10 -10 -11 -11 -11 -11 -11 -11 -11 -11 -12
-1 -5 -5 -7 -6 -4 -3 -1 -1 -1 1 -2 -1 -1 -0 -1 -3 -3 -5 -5 -7 -8 -9 -11 -12 -10 -11 -13 -10 -10 -10 -10 -10 -10 -10 -10 -10 -11 -11 -12 -12 -11 -12 -12

GFSNW_925_temp_096.txt.gz
Temp
2 2 2 3 3 3 3 5 7 4 4 7 7 7 7 7 8 9 9 8 7 6 7 8 10 10 13 15 16 16 16 17 15 17 17 19 20 19 19 18 16 17 17 19
2 2 2 3 2 3 4 5 7 5 5 6 7 8 8 8 7 8 8 9 8 6 7 9 8 10 12 13 14 14 16 16 15 14 16 18 18 18 18 17 17 15 16 19
2 2 2 2 2 3 3 5 6 7 5 6 5 6 7 6 8 7 7 7 7 7 8 8 9 9 11 11 12 13 15 16 16 17 17 18 16 17 17 17 16 17 18 18
3 3 2 2 2 3 4 5 4 5 6 6 6 6 5 6 5 8 8 8 9 9 8 9 9 9 10 11 10 12 14 15 16 16 16 17 17 17 16 17 17 16 18 17
2 2 2 2 2 3 3 4 6 5 6 6 7 6 6 6 7 7 8 8 10 11 9 8 8 8 9 10 12 11 11 13 15 14 15 16 16 16 16 16 16 17 17 18
2 2 2 2 2 2 3 3 3 5 6 7 7 7 7 7 8 8 9 9 9 11 9 8 9 9 10 10 11 12 13 14 15 14 15 15 15 15 16 17 17 17 16 17
2 2 2 2 2 2 3 2 3 4 6 7 7 7 7 7 7 7 9 10 9 10 10 11 12 11 12 12 13 12 13 14 14 13 14 13 15 16 16 16 15 15 16 16
1 2 1 2 2 2 2 1 2 4 5 7 7 7 7 8 9 8 8 9 9 9 10 12 13 13 13 13 12 12 13 13 13 13 14 14 14 13 13 14 14 13 12 14
2 1 2 2 2 2 2 2 2 2 5 7 6 7 7 8 8 8 9 9 9 9 10 11 11 11 12 12 13 13 13 13 13 13 12 12 12 13 14 14 14 10 10 11
1 1 2 2 2 2 2 2 2 1 4 8 6 7 7 7 8 7 8 8 8 9 10 11 11 12 12 11 12 11 12 11 11 11 12 13 10 13 14 14 11 9 8 6
1 1 2 1 2 2 2 2 2 2 4 7 6 7 7 8 7 7 8 9 8 8 9 9 9 10 10 11 11 11 12 12 11 11 11 11 6 12 11 6 6 6 5 4
1 1 1 1 1 2 2 2 1 2 2 4 3 4 5 6 7 7 7 6 6 7 8 8 7 7 8 9 10 11 10 8 9 8 7 5 4 4 3 3 3 4 4 3
1 1 1 1 1 2 2 2 1 1 2 3 4 7 6 5 4 6 6 7 7 7 5 5 6 7 9 8 9 9 8 8 8 7 5 4 4 3 2 2 2 1 2 2
1 1 1 1 1 2 2 2 2 2 2 3 7 5 6 5 5 5 5 7 6 7 5 6 6 6 9 9 9 8 8 8 6 6 5 5 4 2 2 2 2 1 2 2
1 1 1 1 1 2 2 2 2 2 3 4 7 7 6 5 5 5 5 6 7 7 7 7 7 9 8 8 8 8 6 5 7 6 4 4 2 1 0 0 -0 1 2 1
1 1 1 1 2 2 2 2 2 2 2 3 6 7 6 5 5 5 6 6 7 7 7 7 5 7 8 8 8 4 3 4 3 3 2 1 0 -0 -0 0 1 1 1 0
1 1 1 1 2 2 2 4 3 2 2 2 5 7 6 5 5 5 6 6 7 7 7 7 7 8 8 7 8 4 4 3 3 2 2 2 2 2 2 1 -0 -1 -1 -2
1 1 1 1 2 2 2 2 2 2 1 2 5 6 6 5 6 6 6 6 5 6 6 6 7 9 8 7 4 4 4 3 3 2 3 3 1 1 1 0 0 0 -1 -2
1 1 1 3 2 2 2 3 2 2 3 5 4 6 6 5 5 5 5 7 5 7 6 6 7 7 7 3 4 3 2 3 2 2 2 1 1 -0 -1 -1 -1 -2 -3 -4
1 0 1 1 2 2 2 1 2 2 5 5 4 6 6 5 4 5 5 6 7 6 7 6 6 7 2 2 1 1 0 0 1 2 1 0 -1 -1 -2 -3 -4 -4 -5 -7
0 0 2 2 2 2 3 3 4 4 4 5 5 6 7 6 6 6 6 6 7 7 8 7 7 6 1 0 0 0 -0 -0 -1 -1 -2 -2 -1 -2 -3 -4 -5 -6 -6 -7
1 1 2 2 2 3 4 4 4 4 6 6 5 5 7 6 5 6 5 6 6 6 6 6 7 1 -0 -0 -1 -1 -2 -2 -2 -2 -3 -4 -4 -4 -4 -5 -6 -7 -9 -10
1 2 2 3 3 5 5 4 5 5 5 5 5 4 6 4 4 5 5 5 6 5 6 7 4 0 -1 -1 -2 -3 -3 -4 -4 -5 -5 -6 -6 -7 -7 -9 -10 -10 -11 -11
2 4 4 4 4 5 6 7 7 5 5 5 5 5 5 4 4 6 6 5 5 6 6 7 1 -1 -2 -3 -4 -5 -7 -8 -8 -8 -8 -9 -10 -10 -11 -11 -11 -11 -11 -12
3 4 5 3 3 2 3 4 4 3 5 4 5 5 7 5 5 5 5 5 6 7 7 2 -0 -2 -3 -4 -5 -6 -8 -9 -8 -9 -9 -10 -10 -10 -10 -11 -11 -12 -12 -12
2 2 2 2 3 2 3 3 4 3 4 5 7 4 5 5 5 4 5 6 7 4 1 -1 -2 -4 -5 -6 -7 -8 -8 -8 -8 -8 -9 -9 -10 -9 -9 -10 -11 -11 -12 -12
1 1 -1 1 3 3 2 2 3 2 5 6 6 5 5 4 5 5 3 5 1 -1 -2 -2 -3 -4 -6 -7 -8 -9 -8 -8 -8 -8 -8 -9 -9 -9 -8 -8 -9 -10 -11 -12

GFSNW_925_temp_102.txt.gz
Temp
3 3 3 3 4 5 6 11 11 9 9 10 12 12 12 12 13 13 13 12 10 8 7 9 8 8 9 10 17 15 19 16 15 17 15 18 18 17 17 14 18 16 14 14
3 3 3 3 4 5 7 11 12 10 9 9 11 13 13 13 12 13 11 11 11 8 7 8 9 8 9 13 15 13 15 16 13 16 17 14 17 17 19 18 14 18 16 14
3 3 3 3 4 4 4 11 9 12 12 10 11 11 11 11 13 12 12 12 12 13 9 11 9 8 8 13 13 12 15 15 13 15 17 15 13 14 15 18 14 17 16 14
3 3 2 3 4 4 4 10 8 11 10 11 11 11 11 10 11 13 13 12 13 13 10 10 10 11 10 13 12 12 12 11 13 14 16 17 14 14 15 18 18 13 17 15
3 3 2 3 4 5 7 4 10 11 11 12 11 10 11 11 12 12 12 12 13 13 11 11 9 11 11 11 11 9 11 11 10 11 18 15 15 17 17 18 18 18 15 12
3 2 3 3 4 4 8 9 9 10 11 12 12 12 11 11 12 12 13 13 12 12 11 12 12 13 13 12 10 11 11 13 13 14 18 17 15 17 17 16 15 15 12 12
2 3 3 3 3 3 5 8 8 8 9 12 12 11 11 12 12 11 12 13 12 12 13 14 16 15 15 15 14 15 12 14 15 14 15 12 15 17 15 14 13 14 14 12
2 2 2 2 3 3 4 6 7 7 8 11 12 11 11 12 13 13 13 13 12 13 13 13 13 14 12 15 15 15 15 14 14 14 15 14 15 13 12 11 9 11 12 11
2 2 2 2 2 3 3 5 6 7 7 9 11 10 11 10 11 11 12 13 12 13 13 13 12 12 14 14 15 17 16 15 15 16 15 12 9 10 13 14 8 8 9 8
2 2 2 2 2 3 3 4 4 6 5 9 10 9 9 10 10 10 11 11 11 12 10 11 12 10 14 12 13 13 13 13 13 14 14 10 7 10 12 13 7 7 7 6
2 2 2 2 2 2 3 3 3 5 6 8 9 10 9 10 10 8 10 10 10 9 9 10 11 11 12 12 13 13 11 11 11 11 12 10 6 10 8 5 4 5 5 5
2 2 2 2 2 2 3 4 3 2 2 6 5 7 8 8 9 9 9 9 9 9 9 8 8 9 11 12 10 13 10 10 10 8 7 5 5 5 4 4 4 4 4 5
2 2 2 1 1 2 3 4 2 2 2 5 7 9 10 9 9 8 8 8 10 9 9 7 8 8 11 10 11 12 10 12 8 7 6 5 5 5 4 4 3 5 6 6
1 2 2 1 1 1 2 4 2 3 3 5 8 10 10 9 9 9 8 9 9 10 10 8 8 7 11 10 11 10 10 11 9 6 6 5 4 4 4 4 5 5 6 6
1 2 2 1 1 1 2 3 3 3 4 5 7 9 10 10 9 9 9 9 9 9 9 8 8 10 10 11 11 8 8 6 7 6 4 4 3 2 3 3 4 5 5 5
1 1 2 2 1 1 3 3 4 4 3 5 6 6 10 9 9 9 9 9 9 9 9 8 10 11 9 9 8 5 5 5 4 4 3 2 2 2 4 4 4 4 4 3
1 2 1 1 1 2 4 4 2 3 4 5 6 8 10 9 9 8 8 9 8 8 8 9 9 10 9 9 9 6 6 7 5 4 5 4 4 5 5 5 5 4 3 2
1 2 1 1 1 2 3 3 2 3 3 4 5 8 7 8 7 7 9 7 7 7 8 9 9 10 9 7 7 7 7 6 6 6 6 6 5 5 5 5 4 4 2 0
1 1 1 1 1 1 3 3 3 2 2 4 6 6 7 8 8 8 8 8 6 8 6 8 9 9 7 5 7 7 6 6 6 5 5 5 4 3 2 2 1 -0 -2 -3
1 1 0 1 1 2 2 2 3 2 3 4 5 8 7 8 7 7 7 7 7 7 8 10 8 6 5 5 5 4 4 4 5 4 3 3 2 1 0 -1 -2 -3 -4 -5
2 1 2 2 2 2 2 3 4 4 5 7 8 8 8 9 7 7 8 7 9 8 9 9 8 7 3 4 4 4 4 4 3 2 2 1 1 0 -1 -2 -3 -4 -5 -7
2 1 1 2 2 3 4 5 6 6 7 9 7 7 10 6 8 7 8 8 8 7 9 8 8 3 3 3 2 2 1 1 1 1 -0 -1 -1 -1 -2 -4 -6 -7 -8 -8
1 0 1 3 3 5 5 5 6 6 8 8 7 6 8 8 6 5 6 6 7 9 7 8 4 3 2 2 1 0 -0 -0 -1 -2 -3 -4 -5 -5 -6 -7 -7 -8 -9 -9
1 2 4 5 5 6 8 9 8 8 7 7 7 6 7 6 5 5 6 7 8 8 8 7 3 1 -0 -1 -1 -3 -5 -5 -5 -6 -7 -7 -8 -8 -8 -9 -9 -9 -9 -11
2 3 5 5 6 5 5 6 6 6 7 7 7 7 8 7 6 6 6 6 7 8 7 3 1 -0 -1 -2 -3 -4 -5 -6 -6 -6 -7 -8 -8 -8 -8 -8 -9 -10 -10 -11
1 3 4 5 5 4 5 4 4 6 6 7 8 7 6 6 7 7 7 8 8 5 2 0 -1 -2 -3 -3 -4 -5 -5 -5 -6 -6 -7 -7 -7 -7 -7 -8 -9 -9 -10 -10
2 3 2 3 4 4 4 3 4 4 6 6 7 7 6 7 7 7 7 6 3 1 0 -0 -1 -2 -4 -5 -5 -6 -5 -5 -5 -6 -6 -7 -7 -7 -7 -7 -8 -8 -9 -9

GFSNW_925_temp_105.txt.gz
Temp
3 3 3 3 4 4 4 6 6 9 9 5 4 5 11 12 12 13 12 11 11 8 8 8 6 7 9 10 10 10 12 12 13 15 14 15 15 14 13 13 14 13 13 12
3 3 3 3 4 4 4 6 6 9 9 3 4 11 12 12 11 12 11 10 11 9 7 6 7 7 11 11 11 11 11 14 13 12 14 11 13 15 15 15 13 13 13 12
3 3 3 3 4 4 4 5 5 7 6 7 9 9 10 10 11 12 12 12 11 10 7 9 8 8 11 11 12 12 12 13 11 12 12 14 14 15 14 12 13 13 13 12
3 3 3 3 4 4 4 4 4 8 4 5 9 10 10 9 9 12 12 11 11 10 8 8 8 10 10 11 11 10 10 10 10 12 12 12 11 11 12 13 14 13 11 11
3 3 3 3 4 4 4 1 6 8 7 10 10 9 10 10 11 10 11 10 11 10 9 8 8 9 9 9 10 10 10 10 10 11 10 11 10 11 13 12 12 12 11 10
3 3 3 3 4 4 6 9 8 5 7 9 8 8 11 10 10 11 12 10 10 10 9 10 10 11 10 10 10 11 10 10 10 11 14 14 11 11 11 10 11 12 10 9
3 2 3 3 3 4 4 7 7 3 4 7 10 11 11 11 11 10 11 11 10 10 10 10 11 13 11 11 13 12 12 11 12 12 13 12 9 10 10 9 8 10 10 7
2 3 3 3 3 4 4 5 5 4 3 8 10 11 10 10 9 10 11 10 10 9 9 9 11 11 11 13 14 14 14 12 11 12 11 11 11 9 8 9 7 8 8 8
3 2 2 2 3 4 4 5 6 5 2 5 9 9 8 7 6 7 9 9 9 8 8 9 10 10 12 11 12 14 13 12 11 12 12 10 8 7 8 10 7 6 6 5
3 2 2 2 2 3 4 4 4 5 1 6 7 6 6 8 7 6 7 7 7 8 5 7 8 9 12 10 11 10 9 9 9 10 10 8 5 7 8 10 6 5 4 4
2 2 2 2 2 3 4 3 4 4 4 4 7 7 6 6 5 4 5 5 5 4 5 7 7 7 9 10 11 11 8 9 7 8 8 7 5 7 6 5 4 4 4 3
2 2 2 2 2 3 3 3 3 3 2 2 4 5 7 7 7 5 5 6 7 6 4 5 6 6 6 9 9 10 8 8 6 6 6 4 5 4 3 3 3 4 4 4
2 2 2 2 2 2 3 3 2 2 2 3 3 5 9 9 8 8 5 5 6 6 5 3 3 6 8 7 8 8 9 9 5 5 5 4 4 4 3 3 3 4 5 5
2 2 2 2 2 2 2 3 3 3 3 2 6 9 10 9 9 9 8 7 7 7 5 5 3 4 8 7 8 7 6 7 7 5 4 4 3 2 3 4 5 5 5 4
2 2 2 2 2 2 2 3 3 3 3 4 3 7 9 10 9 9 9 8 6 5 5 4 4 6 7 7 7 6 5 5 5 4 4 4 2 2 3 3 3 3 3 2
1 2 2 2 2 2 2 1 4 4 3 4 4 6 8 9 9 9 8 8 6 5 5 4 5 9 7 4 4 5 5 5 4 3 2 1 1 1 3 3 3 3 2 1
1 2 2 2 2 2 2 2 2 3 4 2 4 4 6 9 8 7 6 8 5 5 5 5 6 6 7 4 5 4 6 5 4 4 3 2 2 4 5 4 4 2 0 -1
1 2 2 1 1 2 2 3 2 3 3 3 4 3 5 8 5 5 5 4 4 4 4 5 5 6 7 5 5 6 6 6 5 5 5 5 5 3 2 1 1 -1 -2 -3
1 1 2 1 2 2 3 3 3 2 2 3 4 5 3 4 5 5 5 4 2 4 2 4 5 3 4 4 5 5 5 5 5 5 5 3 2 0 -1 -2 -3 -4 -4 -5
1 2 1 -1 0 2 3 2 2 2 3 3 3 4 3 5 3 5 4 3 3 5 4 5 2 3 4 4 3 3 3 2 2 3 1 1 -1 -2 -3 -4 -4 -5 -6 -8
1 -0 1 2 2 2 2 3 3 3 3 3 3 4 4 6 3 3 3 4 3 5 6 4 3 4 2 3 2 2 2 2 0 -0 -1 -2 -1 -2 -3 -4 -6 -7 -8 -9
2 1 1 2 2 2 3 2 2 3 4 5 3 4 5 4 5 4 4 4 3 4 4 3 2 2 1 1 -0 -1 -1 -2 -2 -2 -4 -4 -4 -5 -6 -7 -8 -8 -9 -9
2 1 1 2 2 4 3 3 3 4 2 3 3 3 4 4 5 3 3 4 2 3 5 4 2 1 1 -0 -3 -5 -4 -4 -4 -5 -6 -7 -7 -7 -8 -8 -8 -9 -9 -10
1 2 2 2 3 2 2 3 3 3 2 3 3 2 3 1 2 5 6 3 3 3 2 4 1 -1 -3 -3 -4 -5 -7 -7 -8 -8 -8 -8 -9 -9 -8 -8 -9 -9 -10 -10
1 2 3 1 3 3 3 2 2 2 1 2 2 2 4 4 2 4 6 4 2 3 4 1 -1 -2 -3 -5 -5 -7 -9 -8 -8 -8 -8 -8 -8 -8 -9 -9 -9 -10 -10 -10
1 1 2 4 4 3 3 3 4 2 1 1 3 3 4 5 5 4 2 5 5 3 0 -1 -2 -4 -6 -7 -8 -6 -6 -6 -7 -7 -8 -8 -8 -8 -8 -8 -8 -9 -9 -9
2 2 1 1 3 3 3 3 2 3 2 3 3 4 6 4 5 6 4 3 2 -0 -1 -2 -3 -5 -8 -7 -5 -5 -5 -6 -6 -7 -7 -7 -7 -7 -7 -8 -7 -8 -8 -8